Location: Passau
(48.5830°N, 13.4830°E)
Time: 09:38:53
(UTC+01:00)

ISS - Visible Passes

Search period start: 25 January 2021 00:00
Search period end: 04 February 2021 00:00
Orbit: 418 x 421 km, 51.6° (Epoch: 25 January)

Date Brightness Start Highest point End Pass type
(mag) Time Alt. Az. Time Alt. Az. Time Alt. Az.
25 Jan -3.7 17:58:20 10° WSW 18:01:44 78° NNW 18:04:02 19° ENE visible
25 Jan -1.4 19:35:29 10° WNW 19:37:00 23° WNW 19:37:00 23° WNW visible
26 Jan -3.3 18:48:02 10° W 18:51:21 48° N 18:51:35 47° NNE visible
27 Jan -3.3 18:00:34 10° W 18:03:53 53° N 18:06:09 18° ENE visible
27 Jan -1.4 19:37:40 10° WNW 19:39:07 23° WNW 19:39:07 23° WNW visible
28 Jan -3.4 18:50:15 10° WNW 18:53:33 50° N 18:53:41 50° NNE visible
29 Jan -3.2 18:02:46 10° WNW 18:06:05 48° N 18:08:17 19° ENE visible
29 Jan -1.5 19:39:42 10° WNW 19:41:15 25° WNW 19:41:15 25° WNW visible
30 Jan -3.8 18:52:18 10° WNW 18:55:41 69° NNE 18:55:52 66° NE visible
31 Jan -3.5 18:04:52 10° WNW 18:08:13 57° NNE 18:10:32 18° E visible
31 Jan -1.6 19:41:45 10° WNW 19:43:31 26° W 19:43:31 26° W visible
01 Feb -3.6 18:54:16 10° WNW 18:57:39 68° SSW 18:58:16 52° SSE visible
02 Feb -3.8 18:06:49 10° WNW 18:10:13 88° NNE 18:13:06 14° ESE visible
02 Feb -1.3 19:44:03 10° W 19:46:06 20° SW 19:46:06 20° SW visible
03 Feb -2.1 18:56:21 10° W 18:59:24 31° SW 19:01:05 20° SSE visible
